Time,TemperatureF,DewpointF,PressureIn,WindDirection,WindDirectionDegrees,WindSpeedMPH,WindSpeedGustMPH,Humidity,HourlyPrecipIn,Conditions,Clouds,dailyrainin,SoftwareType,DateUTC
2013-06-26 00:01:00,72.0,53.0,30.02,West,280,8.0,17.0,52,0.00,,,0.00,,2013-06-26 07:01:00,
2013-06-26 00:11:00,72.0,53.0,30.02,West,280,8.0,17.0,52,0.00,,,0.00,,2013-06-26 07:11:00,
2013-06-26 00:21:00,72.0,53.0,30.02,West,267,10.0,19.0,52,0.00,,,0.00,,2013-06-26 07:21:00,
2013-06-26 00:33:00,72.0,53.0,30.02,WNW,287,12.0,20.0,52,0.00,,,0.00,,2013-06-26 07:33:00,
2013-06-26 00:42:00,72.0,53.0,30.02,WNW,287,12.0,20.0,52,0.00,,,0.00,,2013-06-26 07:42:00,
2013-06-26 00:53:00,71.0,54.0,30.01,West,271,15.0,24.0,54,0.00,,,0.00,,2013-06-26 07:53:00,
2013-06-26 01:01:00,71.0,54.0,30.01,WNW,292,15.0,28.0,54,0.00,,,0.00,,2013-06-26 08:01:00,
2013-06-26 01:11:00,71.0,54.0,30.01,WNW,292,15.0,28.0,54,0.00,,,0.00,,2013-06-26 08:11:00,
2013-06-26 01:22:00,71.0,54.0,30.01,West,267,15.0,26.0,54,0.00,,,0.00,,2013-06-26 08:22:00,
2013-06-26 01:33:00,71.0,52.0,30.01,WSW,256,7.0,24.0,52,0.00,,,0.00,,2013-06-26 08:33:00,
2013-06-26 01:42:00,71.0,52.0,30.01,WSW,256,7.0,24.0,52,0.00,,,0.00,,2013-06-26 08:42:00,
2013-06-26 01:53:00,71.0,52.0,30.01,WNW,295,6.0,18.0,51,0.00,,,0.00,,2013-06-26 08:53:00,
2013-06-26 02:01:00,71.0,52.0,30.01,WSW,253,2.0,11.0,52,0.00,,,0.00,,2013-06-26 09:01:00,
2013-06-26 02:11:00,71.0,52.0,30.01,WSW,253,2.0,11.0,52,0.00,,,0.00,,2013-06-26 09:11:00,
2013-06-26 02:22:00,70.0,52.0,30.02,WSW,257,0.0,3.0,52,0.00,,,0.00,,2013-06-26 09:22:00,
2013-06-26 02:32:00,70.0,52.0,30.02,WSW,257,3.0,6.0,53,0.00,,,0.00,,2013-06-26 09:32:00,
2013-06-26 02:43:00,70.0,52.0,30.02,WSW,257,3.0,6.0,53,0.00,,,0.00,,2013-06-26 09:43:00,
2013-06-26 02:53:00,69.0,52.0,30.02,SW,232,1.0,6.0,54,0.00,,,0.00,,2013-06-26 09:53:00,
2013-06-26 03:01:00,69.0,52.0,30.00,SW,231,3.0,4.0,55,0.00,,,0.00,,2013-06-26 10:01:00,
2013-06-26 03:12:00,69.0,52.0,30.00,SW,231,3.0,4.0,55,0.00,,,0.00,,2013-06-26 10:12:00,
2013-06-26 03:22:00,68.0,52.0,30.00,South,178,2.0,6.0,56,0.00,,,0.00,,2013-06-26 10:22:00,
2013-06-26 03:33:00,68.0,53.0,30.00,South,178,0.0,4.0,58,0.00,,,0.00,,2013-06-26 10:33:00,
2013-06-26 03:43:00,68.0,53.0,30.00,South,178,0.0,4.0,58,0.00,,,0.00,,2013-06-26 10:43:00,
2013-06-26 03:53:00,67.0,52.0,30.01,South,178,1.0,2.0,59,0.00,,,0.00,,2013-06-26 10:53:00,
2013-06-26 04:02:00,67.0,52.0,30.01,South,177,1.0,5.0,59,0.00,,,0.00,,2013-06-26 11:02:00,
2013-06-26 04:11:00,67.0,52.0,30.01,South,177,1.0,5.0,59,0.00,,,0.00,,2013-06-26 11:11:00,
2013-06-26 04:22:00,66.0,52.0,30.01,WSW,258,5.0,6.0,61,0.00,,,0.00,,2013-06-26 11:22:00,
2013-06-26 04:32:00,67.0,52.0,30.01,WSW,254,4.0,6.0,59,0.00,,,0.00,,2013-06-26 11:32:00,
2013-06-26 04:43:00,67.0,52.0,30.01,WSW,254,4.0,6.0,59,0.00,,,0.00,,2013-06-26 11:43:00,
2013-06-26 04:52:00,66.0,53.0,30.01,WSW,254,2.0,4.0,62,0.00,,,0.00,,2013-06-26 11:52:00,
2013-06-26 05:02:00,66.0,53.0,30.01,WSW,240,1.0,4.0,62,0.00,,,0.00,,2013-06-26 12:02:00,
2013-06-26 05:11:00,66.0,53.0,30.01,WSW,240,1.0,4.0,62,0.00,,,0.00,,2013-06-26 12:11:00,
2013-06-26 05:22:00,66.0,52.0,30.01,WSW,240,1.0,3.0,61,0.00,,,0.00,,2013-06-26 12:22:00,
2013-06-26 05:33:00,66.0,53.0,30.02,WSW,240,1.0,4.0,62,0.00,,,0.00,,2013-06-26 12:33:00,
2013-06-26 05:42:00,66.0,53.0,30.02,WSW,240,1.0,4.0,62,0.00,,,0.00,,2013-06-26 12:42:00,
2013-06-26 05:52:00,65.0,52.0,30.03,WSW,240,0.0,4.0,63,0.00,,,0.00,,2013-06-26 12:52:00,
2013-06-26 06:02:00,65.0,52.0,30.03,WSW,241,1.0,5.0,63,0.00,,,0.00,,2013-06-26 13:02:00,
2013-06-26 06:22:00,65.0,52.0,30.03,WSW,241,2.0,4.0,62,0.00,,,0.00,,2013-06-26 13:22:00,
2013-06-26 06:34:00,65.0,52.0,30.03,WSW,241,0.0,4.0,63,0.00,,,0.00,,2013-06-26 13:34:00,
2013-06-26 06:42:00,65.0,52.0,30.03,WSW,241,0.0,4.0,63,0.00,,,0.00,,2013-06-26 13:42:00,
2013-06-26 06:53:00,66.0,52.0,30.03,WSW,243,1.0,5.0,61,0.00,,,0.00,,2013-06-26 13:53:00,
2013-06-26 07:02:00,67.0,52.0,30.03,WSW,243,0.0,3.0,59,0.00,,,0.00,,2013-06-26 14:02:00,
2013-06-26 07:11:00,67.0,52.0,30.03,WSW,243,0.0,3.0,59,0.00,,,0.00,,2013-06-26 14:11:00,
2013-06-26 07:23:00,68.0,53.0,30.03,NW,317,5.0,10.0,58,0.00,,,0.00,,2013-06-26 14:23:00,
2013-06-26 07:33:00,69.0,53.0,30.03,NW,319,3.0,6.0,57,0.00,,,0.00,,2013-06-26 14:33:00,
2013-06-26 07:42:00,69.0,53.0,30.03,NW,319,3.0,6.0,57,0.00,,,0.00,,2013-06-26 14:42:00,
2013-06-26 07:53:00,70.0,54.0,30.01,NW,313,0.0,4.0,56,0.00,,,0.00,,2013-06-26 14:53:00,
2013-06-26 08:02:00,73.0,53.0,30.03,SSE,154,1.0,4.0,49,0.00,,,0.00,,2013-06-26 15:02:00,
2013-06-26 08:11:00,73.0,53.0,30.03,SSE,154,1.0,4.0,49,0.00,,,0.00,,2013-06-26 15:11:00,
2013-06-26 08:22:00,76.0,54.0,30.03,SE,146,2.0,4.0,46,0.00,,,0.00,,2013-06-26 15:22:00,
2013-06-26 08:33:00,77.0,53.0,30.02,WSW,240,1.0,4.0,44,0.00,,,0.00,,2013-06-26 15:33:00,
2013-06-26 08:43:00,77.0,53.0,30.02,WSW,240,1.0,4.0,44,0.00,,,0.00,,2013-06-26 15:43:00,
2013-06-26 08:53:00,80.0,52.0,30.02,WSW,238,0.0,3.0,38,0.00,,,0.00,,2013-06-26 15:53:00,
2013-06-26 09:01:00,80.0,51.0,30.04,NW,313,1.0,4.0,37,0.00,,,0.00,,2013-06-26 16:01:00,
2013-06-26 09:11:00,80.0,51.0,30.04,NW,313,1.0,4.0,37,0.00,,,0.00,,2013-06-26 16:11:00,
2013-06-26 09:22:00,81.0,53.0,30.05,SE,141,3.0,5.0,38,0.00,,,0.00,,2013-06-26 16:22:00,
2013-06-26 09:34:00,79.0,52.0,30.05,SSE,161,6.0,12.0,39,0.00,,,0.00,,2013-06-26 16:34:00,
2013-06-26 09:43:00,79.0,52.0,30.05,SSE,161,6.0,12.0,39,0.00,,,0.00,,2013-06-26 16:43:00,
2013-06-26 09:52:00,81.0,52.0,30.03,South,171,3.0,9.0,37,0.00,,,0.00,,2013-06-26 16:52:00,
2013-06-26 10:01:00,82.0,52.0,30.05,SW,220,3.0,8.0,35,0.00,,,0.00,,2013-06-26 17:01:00,
2013-06-26 10:11:00,82.0,52.0,30.05,SW,220,3.0,8.0,35,0.00,,,0.00,,2013-06-26 17:11:00,
2013-06-26 10:33:00,85.0,52.0,30.05,SSE,155,6.0,10.0,32,0.00,,,0.00,,2013-06-26 17:33:00,
2013-06-26 10:43:00,85.0,52.0,30.05,SSE,155,6.0,10.0,32,0.00,,,0.00,,2013-06-26 17:43:00,
2013-06-26 10:52:00,85.0,52.0,30.04,SW,215,5.0,13.0,32,0.00,,,0.00,,2013-06-26 17:52:00,
2013-06-26 11:01:00,85.0,52.0,30.04,SE,133,7.0,12.0,32,0.00,,,0.00,,2013-06-26 18:01:00,
2013-06-26 11:11:00,85.0,52.0,30.04,SE,133,7.0,12.0,32,0.00,,,0.00,,2013-06-26 18:11:00,
2013-06-26 11:22:00,84.0,51.0,30.04,SSE,153,9.0,16.0,32,0.00,,,0.00,,2013-06-26 18:22:00,
2013-06-26 11:34:00,85.0,52.0,30.04,SSE,151,7.0,15.0,32,0.00,,,0.00,,2013-06-26 18:34:00,
2013-06-26 11:42:00,85.0,52.0,30.04,SSE,151,7.0,15.0,32,0.00,,,0.00,,2013-06-26 18:42:00,
2013-06-26 11:52:00,85.0,52.0,30.05,SSE,148,7.0,19.0,32,0.00,,,0.00,,2013-06-26 18:52:00,
2013-06-26 12:01:00,85.0,52.0,30.05,South,170,7.0,16.0,32,0.00,,,0.00,,2013-06-26 19:01:00,
2013-06-26 12:11:00,85.0,52.0,30.05,South,170,7.0,16.0,32,0.00,,,0.00,,2013-06-26 19:11:00,
2013-06-26 12:22:00,86.0,52.0,30.04,SE,143,7.0,14.0,31,0.00,,,0.00,,2013-06-26 19:22:00,
2013-06-26 12:32:00,87.0,52.0,30.04,SW,223,7.0,15.0,30,0.00,,,0.00,,2013-06-26 19:32:00,
2013-06-26 12:42:00,87.0,52.0,30.04,SW,223,7.0,15.0,30,0.00,,,0.00,,2013-06-26 19:42:00,
2013-06-26 12:52:00,87.0,51.0,30.04,SW,231,8.0,15.0,29,0.00,,,0.00,,2013-06-26 19:52:00,
2013-06-26 13:01:00,88.0,51.0,30.04,South,184,8.0,15.0,28,0.00,,,0.00,,2013-06-26 20:01:00,
2013-06-26 13:12:00,88.0,51.0,30.04,South,184,8.0,15.0,28,0.00,,,0.00,,2013-06-26 20:12:00,
2013-06-26 13:22:00,88.0,51.0,30.03,South,180,9.0,17.0,28,0.00,,,0.00,,2013-06-26 20:22:00,
2013-06-26 13:33:00,89.0,51.0,30.03,SSE,167,9.0,16.0,27,0.00,,,0.00,,2013-06-26 20:33:00,
2013-06-26 13:43:00,89.0,51.0,30.03,SSE,167,9.0,16.0,27,0.00,,,0.00,,2013-06-26 20:43:00,
2013-06-26 13:52:00,89.0,51.0,30.03,SSE,161,10.0,16.0,27,0.00,,,0.00,,2013-06-26 20:52:00,
2013-06-26 14:01:00,89.0,52.0,30.03,SSE,163,11.0,17.0,28,0.00,,,0.00,,2013-06-26 21:01:00,
2013-06-26 14:11:00,89.0,52.0,30.03,SSE,163,11.0,17.0,28,0.00,,,0.00,,2013-06-26 21:11:00,
2013-06-26 14:23:00,89.0,52.0,30.03,SSE,154,11.0,19.0,28,0.00,,,0.00,,2013-06-26 21:23:00,
2013-06-26 14:33:00,89.0,52.0,30.02,South,173,9.0,21.0,28,0.00,,,0.00,,2013-06-26 21:33:00,
2013-06-26 14:43:00,89.0,52.0,30.02,South,173,9.0,21.0,28,0.00,,,0.00,,2013-06-26 21:43:00,
2013-06-26 14:52:00,89.0,52.0,30.02,SSW,195,12.0,18.0,28,0.00,,,0.00,,2013-06-26 21:52:00,
2013-06-26 15:01:00,89.0,51.0,30.02,SSE,153,10.0,19.0,27,0.00,,,0.00,,2013-06-26 22:01:00,
2013-06-26 15:11:00,89.0,51.0,30.02,SSE,153,10.0,19.0,27,0.00,,,0.00,,2013-06-26 22:11:00,
2013-06-26 15:21:00,89.0,52.0,30.03,SW,232,8.0,18.0,28,0.00,,,0.00,,2013-06-26 22:21:00,
2013-06-26 15:33:00,89.0,51.0,30.03,SSE,160,17.0,22.0,27,0.00,,,0.00,,2013-06-26 22:33:00,
2013-06-26 15:43:00,89.0,51.0,30.03,SSE,160,17.0,22.0,27,0.00,,,0.00,,2013-06-26 22:43:00,
2013-06-26 15:52:00,89.0,51.0,30.03,SSE,156,14.0,23.0,27,0.00,,,0.00,,2013-06-26 22:52:00,
2013-06-26 16:01:00,89.0,52.0,30.04,SW,220,10.0,18.0,28,0.00,,,0.00,,2013-06-26 23:01:00,
2013-06-26 16:11:00,89.0,52.0,30.04,SW,220,10.0,18.0,28,0.00,,,0.00,,2013-06-26 23:11:00,
2013-06-26 16:22:00,88.0,51.0,30.04,SSW,212,10.0,19.0,28,0.00,,,0.00,,2013-06-26 23:22:00,
2013-06-26 16:33:00,89.0,51.0,30.04,SW,225,11.0,19.0,27,0.00,,,0.00,,2013-06-26 23:33:00,
2013-06-26 16:43:00,89.0,51.0,30.04,SW,225,11.0,19.0,27,0.00,,,0.00,,2013-06-26 23:43:00,
2013-06-26 16:53:00,88.0,51.0,30.03,South,182,10.0,17.0,28,0.00,,,0.00,,2013-06-26 23:53:00,
2013-06-26 17:01:00,87.0,51.0,30.03,SSE,165,9.0,21.0,29,0.00,,,0.00,,2013-06-27 00:01:00,
2013-06-26 17:11:00,87.0,51.0,30.03,SSE,165,9.0,21.0,29,0.00,,,0.00,,2013-06-27 00:11:00,
2013-06-26 17:22:00,87.0,51.0,30.04,South,180,11.0,22.0,29,0.00,,,0.00,,2013-06-27 00:22:00,
2013-06-26 17:33:00,86.0,51.0,30.04,South,191,12.0,20.0,30,0.00,,,0.00,,2013-06-27 00:33:00,
2013-06-26 17:42:00,86.0,51.0,30.04,South,191,12.0,20.0,30,0.00,,,0.00,,2013-06-27 00:42:00,
2013-06-26 17:53:00,86.0,51.0,30.01,South,189,10.0,21.0,30,0.00,,,0.00,,2013-06-27 00:53:00,
2013-06-26 18:01:00,86.0,51.0,30.01,South,189,10.0,21.0,30,0.00,,,0.00,,2013-06-27 01:01:00,
2013-06-26 18:11:00,86.0,51.0,30.01,South,189,10.0,21.0,30,0.00,,,0.00,,2013-06-27 01:11:00,
2013-06-26 18:21:00,85.0,50.0,30.01,South,183,11.0,22.0,30,0.00,,,0.00,,2013-06-27 01:21:00,
2013-06-26 18:32:00,85.0,50.0,30.01,South,183,11.0,22.0,30,0.00,,,0.00,,2013-06-27 01:32:00,
2013-06-26 18:43:00,85.0,50.0,30.01,South,183,11.0,22.0,30,0.00,,,0.00,,2013-06-27 01:43:00,
2013-06-26 18:53:00,83.0,49.0,30.02,SSE,161,5.0,14.0,31,0.00,,,0.00,,2013-06-27 01:53:00,
2013-06-26 19:01:00,83.0,49.0,30.02,SSE,161,5.0,14.0,31,0.00,,,0.00,,2013-06-27 02:01:00,
2013-06-26 19:11:00,83.0,49.0,30.02,SSE,161,5.0,14.0,31,0.00,,,0.00,,2013-06-27 02:11:00,
2013-06-26 19:22:00,83.0,49.0,30.02,SSE,161,5.0,14.0,31,0.00,,,0.00,,2013-06-27 02:22:00,
2013-06-26 19:32:00,83.0,49.0,30.02,South,173,7.0,13.0,31,0.00,,,0.00,,2013-06-27 02:32:00,
2013-06-26 19:42:00,83.0,49.0,30.02,South,173,7.0,13.0,31,0.00,,,0.00,,2013-06-27 02:42:00,
2013-06-26 19:52:00,81.0,49.0,30.03,South,171,7.0,15.0,33,0.00,,,0.00,,2013-06-27 02:52:00,
2013-06-26 20:01:00,81.0,49.0,30.03,South,171,7.0,15.0,33,0.00,,,0.00,,2013-06-27 03:01:00,
2013-06-26 20:11:00,80.0,50.0,30.03,SSW,212,9.0,17.0,35,0.00,,,0.00,,2013-06-27 03:11:00,
2013-06-26 20:21:00,80.0,50.0,30.03,SSW,212,9.0,17.0,35,0.00,,,0.00,,2013-06-27 03:21:00,
2013-06-26 20:32:00,78.0,51.0,30.04,SW,215,10.0,15.0,39,0.00,,,0.00,,2013-06-27 03:32:00,
2013-06-26 20:42:00,78.0,51.0,30.04,SW,215,10.0,15.0,39,0.00,,,0.00,,2013-06-27 03:42:00,
2013-06-26 20:51:00,78.0,51.0,30.04,SW,215,10.0,15.0,39,0.00,,,0.00,,2013-06-27 03:51:00,
2013-06-26 21:01:00,78.0,51.0,30.04,SW,215,10.0,15.0,39,0.00,,,0.00,,2013-06-27 04:01:00,
2013-06-26 21:11:00,78.0,51.0,30.04,SW,215,10.0,15.0,39,0.00,,,0.00,,2013-06-27 04:11:00,
2013-06-26 21:22:00,77.0,51.0,30.03,SSE,160,4.0,11.0,40,0.00,,,0.00,,2013-06-27 04:22:00,
2013-06-26 21:33:00,77.0,51.0,30.03,SSE,160,4.0,11.0,40,0.00,,,0.00,,2013-06-27 04:33:00,
2013-06-26 21:42:00,77.0,51.0,30.03,SSE,160,4.0,11.0,40,0.00,,,0.00,,2013-06-27 04:42:00,
2013-06-26 21:52:00,76.0,51.0,30.07,SW,214,4.0,10.0,42,0.00,,,0.00,,2013-06-27 04:52:00,
2013-06-26 22:02:00,76.0,51.0,30.07,SW,214,4.0,10.0,42,0.00,,,0.00,,2013-06-27 05:02:00,
2013-06-26 22:12:00,76.0,51.0,30.07,SW,214,4.0,10.0,42,0.00,,,0.00,,2013-06-27 05:12:00,
2013-06-26 22:21:00,76.0,51.0,30.05,SSW,192,2.0,6.0,41,0.00,,,0.00,,2013-06-27 05:21:00,
2013-06-26 22:32:00,75.0,50.0,30.07,South,182,2.0,5.0,42,0.00,,,0.00,,2013-06-27 05:32:00,
2013-06-26 22:42:00,75.0,50.0,30.07,South,182,2.0,5.0,42,0.00,,,0.00,,2013-06-27 05:42:00,
2013-06-26 22:53:00,76.0,51.0,30.07,ESE,121,4.0,7.0,42,0.00,,,0.00,,2013-06-27 05:53:00,
2013-06-26 23:01:00,75.0,52.0,30.09,SE,137,1.0,5.0,44,0.00,,,0.00,,2013-06-27 06:01:00,
2013-06-26 23:12:00,75.0,52.0,30.09,SE,137,1.0,5.0,44,0.00,,,0.00,,2013-06-27 06:12:00,
2013-06-26 23:22:00,74.0,52.0,30.07,SE,137,0.0,3.0,46,0.00,,,0.00,,2013-06-27 06:22:00,
2013-06-26 23:34:00,74.0,52.0,30.07,SE,138,2.0,5.0,46,0.00,,,0.00,,2013-06-27 06:34:00,
2013-06-26 23:43:00,74.0,52.0,30.07,SE,138,2.0,5.0,46,0.00,,,0.00,,2013-06-27 06:43:00,
2013-06-26 23:53:00,73.0,52.0,30.09,SE,138,0.0,1.0,47,0.00,,,0.00,,2013-06-27 06:53:00,